sat.trackr.live / text

‹ back to catalog

STARLINK-2675

NORAD 48470 · 2021-040AU

PAYLOAD ACTIVE UNKNOWN

§ Identity

Operator
Country
US
Launch date
2021-05-09
Launch site
AFETR
Launch vehicle
Mass (kg)
RCS (m²)

Purposes: comms

External: N2YO · Heavens-Above · Gunter

§ Orbital elements

Epoch: 2026-05-25T03:54:10.152000Z

Period
94.01 min
Inclination
53.1576°
Eccentricity
0.0001132
Mean motion
15.31731998 rev/d
Perigee alt
469.9 km
Apogee alt
471.4 km
Semi-major
6,848.8 km
B*
2.0717e-4
RAAN
195.3628°
Arg perigee
91.3615°
Mean anomaly
268.7516°
Rev number
27,821

§ Raw data

STARLINK-26751 48470U 21040AU  26145.16261750  .00006075  00000+0  20717-3 0  99932 48470  53.1576 195.3628 0001132  91.3615 268.7516 15.31731998278210

JSON: /api/v1/satellites/48470 · /tle

For live sub-satellite position, see the globe view (requires WebGL).

§ Visibility from observer

Set your observer location to see the next 7 days of passes ≥ 10°. The values pass through the URL so the page stays shareable.

No JS? Fill the form by hand. The geolocation button needs JavaScript.